Tracking 35237 objects as of 6-Sep-2026
HD Live streaming from Space Station
objects crossing your sky now

COSMOS 1823 DEB


COSMOS 1823 DEB is no longer on orbit


NORAD ID: 18750
Int'l Code: 1987-020AB
Launch date: February 20, 1987
Source: Commonwealth of Independent States (former USSR) (CIS)
Launch site: PLESETSK MISSILE AND SPACE COMPLEX (PKMTR)
Decay date: 1990-08-28

Note: This is SATELLITE DEBRIS
Your satellite tracking list
Your tracking list is empty




NASA's NSSDC Master Catalog

Two Line Element Set (TLE):
1 18750U 87020 AB 90239.28232523  .74024224 +00000-0 +5722900 0  9997
2 18750 073.3957 147.0148 0073429 146.6558 213.5886 15.04840701127690
Source of the keplerian elements: AFSPC